Regional Weather Roundup
Issued by NWS

Home | Current Version | Previous Version | Text Only | Print | Product List | Glossary On
Versions: 1 2 3 4 5 6 7 8 9 10 11 12 13 14 15 16 17 18 19 20 21 22 23 24 25 26 27 28 29 30 31 32 33 34 35 36 37 38 39 40 41 42 43 44 45 46 47 48 49 50
237
ASUS43 KDTX 191310
RWRMI
MICHIGAN HOURLY REGIONAL WEATHER ROUNDUP
NATIONAL WEATHER SERVICE DETROIT/PONTIAC MI
ISSUED BY NATIONAL WEATHER SERVICE GRAND RAPIDS MI
800 AM EST SUN FEB 19 2017

NOTE: "FAIR" INDICATES FEW OR NO CLOUDS BELOW 12,000 FEET WITH NO
SIGNIFICANT WEATHER AND/OR OBSTRUCTION TO VISIBILITY.

MIZ047>049-052>055-059>063-066>070-074>076-081>083-191400-
SOUTHEAST LOWER MICHIGAN

CITY           SKY/WX    TMP DP  RH WIND       PRES   REMARKS
ADRIAN         PTCLDY    38  35  89 W6        29.96R WCI  33
ALMA           CLEAR     30  28  94 W3        29.95R
ANN ARBOR      CLOUDY    40  34  79 SW3       29.94R
BAD AXE        PTCLDY    33  31  93 SW5       29.91R WCI  29
DETROIT CITY   CLOUDY    43  36  76 W5        29.92R
DETROIT        CLOUDY    41  35  79 SW5       29.94R
FLINT          PTCLDY    37  32  82 SW3       29.94R
GROSSE ILE     CLOUDY    39  35  84 W3        29.93R
HILLSDALE      CLEAR     36  32  87 W5        29.95R WCI  32
HOWELL         CLOUDY    37  33  82 W5        29.95R WCI  34

CITY           SKY/WX    TMP DP  RH WIND       PRES   REMARKS
JACKSON        CLOUDY    35  32  88 W6        29.96R WCI  30
LANSING        CLOUDY    39  31  72 W5        29.96R
MASON          CLOUDY    38  34  86 CALM      29.96R
MONROE         CLOUDY    38  35  91 CALM      29.94R
MT. CLEMENS    MOCLDY    39  35  84 CALM      29.91R
PONTIAC        MOCLDY    36  31  82 W7        29.92R WCI  30
PORT HOPE        N/A     39  33  79 W9        29.88R WCI  33
PORT HURON     MOCLDY    39  34  81 W3        29.92R
TRI CITIES     CLOUDY    37  33  85 W7        29.93R WCI  32
YPSILANTI      CLOUDY    43  35  73 W5        29.94R
$$
MIZ043>046-050>051-056>058-064>065-071>073-077>080-191400-
SOUTHWEST LOWER MICHIGAN

CITY           SKY/WX    TMP DP  RH WIND       PRES   REMARKS
BATTLE CREEK   CLOUDY    40  33  76 CALM      29.97R
BENTON HARBOR  CLEAR     29  26  89 CALM      30.00R FOG
BIG RAPIDS     CLOUDY    28  28  96 CALM      29.94R
COLDWATER      CLEAR     32  31  97 W3        29.97R
HOLLAND        CLOUDY    33  29  85 W3        29.98R
GRAND RAPIDS   PTCLDY    35  30  82 W3        29.97R
KALAMAZOO      PTCLDY    31  28  89 S3        29.98R
MARSHALL       PTCLDY    34  32  92 CALM      29.96R
MOUNT PLEASANT PTCLDY    38  32  78 W5        29.93R WCI  34
MUSKEGON       PTCLDY    29  25  85 CALM      29.98R
STURGIS        CLEAR     31  30  96 S3        29.98R FOG
$$
MIZ016>042-191400-
NORTHERN LOWER MICHIGAN

CITY           SKY/WX    TMP DP  RH WIND       PRES   REMARKS
ALPENA         PTCLDY    36  30  79 W6        29.90R WCI  31
BEAVER ISLAND  PTCLDY    38  32  79 W7        29.93R WCI  32
BELLAIRE       PTCLDY    23  22  98 CALM      29.94R
CADILLAC       CLEAR     28  26  92 CALM      29.92R
CHARLEVOIX     PTCLDY    37  32  84 W9        29.95R WCI  30
GAYLORD        CLEAR     35  27  72 W6        29.90R WCI  30
HOUGHTON LAKE  CLEAR     30  28  92 W6        29.92R WCI  24
MANISTEE       CLEAR     25  24  96 CALM      29.96R
OSCODA         PTCLDY    36  31  82 W6        29.89R WCI  32
PELLSTON       CLEAR     28  25  88 W6        29.91R WCI  22
TRAVERSE CITY  PTCLDY    30  28  92 CALM      29.93R
LUDINGTON        N/A     28  28 100 CALM      29.96R FOG
$$
MIZ007>008-015-191400-
EASTERN UPPER MICHIGAN

CITY           SKY/WX    TMP DP  RH WIND       PRES   REMARKS
KINROSS        PTCLDY    33  31  92 W7        29.88R WCI  27
MACKINAC ISLAN CLEAR     33  30  89 NW7       29.89R WCI  27
NEWBERRY       CLOUDY    36  30  81 NW6       29.89R WCI  31
S. S. MARIE    PTCLDY    32  30  92 SW6       29.87R WCI  26
$$
MIZ004>006-011>014-085-191400-
CENTRAL UPPER MICHIGAN

CITY           SKY/WX    TMP DP  RH WIND       PRES   REMARKS
MANISTIQUE     MOCLDY    36  33  88 NW5       29.93R WCI  32
ESCANABA       PTCLDY    37  29  72 W7        29.95R WCI  32
MENOMINEE      CLOUDY    38  28  67 CALM      29.97R
SAWYER-GWINN   CLEAR     30  28  93 N3        29.92R
$$
MIZ001>003-009>011-084-191400-
WESTERN UPPER MICHIGAN

CITY           SKY/WX    TMP DP  RH WIND       PRES   REMARKS
IRON MOUNTAIN  PTCLDY    30  24  78 CALM      29.94R
HOUGHTON       PTCLDY    27  24  89 NW6       29.94R WCI  20
COPPER HARBOR    N/A     34  30  85 N7        29.93R WCI  28
IRONWOOD       PTCLDY    27  25  92 E3        29.95R
$$

ABBREVIATIONS USED IN REMARKS
   TC - TEMPERATURE IN CELSIUS
  WCI - WIND CHILL INDEX
   HX - HEAT INDEX
  VSB - VISIBILITY





USA.gov is the U.S. government's official web portal to all federal, state and local government web resources and services.